{"data":{"norad_id":67217,"intl_designator":"2025-304AB","name":"STARLINK-36216","alt_names":[],"object_type":"PAYLOAD","status":"ACTIVE","operator":null,"country":"US","launch_date":"2025-12-17","launch_site_code":"AFWTR","launch_vehicle":null,"mission":null,"orbit_class":"UNKNOWN","rcs_meters":null,"size_class":null,"mass_kg":null,"dimensions":null,"purposes":["comms"],"wikipedia_slug":null,"has_3d_model":false,"image_url":null,"decayed_at":null,"tle_current":{"epoch":"2026-09-19T19:48:59.945184Z","epoch_age_seconds":133658,"freshness":"FRESH","line1":"1 67217U 25304AB  26262.82569381  .00003605  00000+0  30969-3 0  9990","line2":"2 67217  70.0015  44.9941 0003227 270.6413  89.4376 14.98337816 42953","mean_motion":14.98337816,"eccentricity":0.0003227,"inclination_deg":70.0015,"raan_deg":44.9941,"arg_perigee_deg":270.6413,"mean_anomaly_deg":89.4376,"bstar":0.00030969,"rev_number":4295,"period_min":96.106497788614,"perigee_km":569.78890126806,"apogee_km":574.2745401604,"semimajor_km":6950.1687207142,"source":"CELESTRAK","updated_at":"2026-09-20T09:00:43.484919Z"}}}